Location: Unspecified
(0.0000°N, 0.0000°E)
Time: 15:30:19
(UTC+00:00)

CZ-3B DEB - Pass Details

Date: 12 November 2025
Orbit: 513 x 39779 km, 23.4° (Epoch: 12 December)

Event Time Altitude Azimuth Distance (km) Brightness Sun altitude
Rises 20:50:35 0° 256° (WSW) 12,835 ? -43.7°
Reaches altitude 10° 20:58:59 10° 259° (WSW) 14,015 ? -45.6°
Maximum altitude 22:23:19 36° 277° (W) 27,619 ? -63.2°
Drops below altitude 10° 02:17:37 10° 287° (WNW) 44,173 ? -48.2°
Sets 03:32:26 0° 289° (WNW) 43,453 ? -31.2°
